Regional Weather Roundup
Issued by NWS Cleveland, OH

Home | Current Version | Previous Version | Graphics & Text | Print | Product List | Glossary On
Versions: 1 2 3 4 5 6 7 8 9 10 11 12 13 14 15 16 17 18 19 20 21 22 23 24 25 26 27 28 29 30 31 32 33 34 35 36 37 38 39 40 41 42 43 44 45 46 47 48 49 50
000
ASUS41 KCLE 162202
RWRCLE
OHIO REGIONAL WEATHER ROUNDUP
NATIONAL WEATHER SERVICE CLEVELAND, OH
500 PM EST SAT DEC 16 2017

NOTE: "FAIR" INDICATES FEW OR NO CLOUDS BELOW 12,000 FEET WITH NO
SIGNIFICANT WEATHER AND/OR OBSTRUCTIONS TO VISIBILITY.

OHZ001>008-015>018-024>027-034-035-043-044-162300-
   NORTHWEST OHIO

CITY           SKY/WX    TMP DP  RH WIND       PRES   REMARKS
DEFIANCE       CLEAR     39  27  62 N3        30.00R
FINDLAY        CLEAR     42  28  57 CALM      30.00R
TOLEDO EXPRESS CLEAR     39  30  70 CALM      30.01R
TOLEDO EXEC    CLEAR     39  29  67 CALM      30.03R
LIMA           CLEAR     42  29  59 SW7       29.99R
$$

OHZ009>014-019>023-028>033-038-089-162300-
   NORTHEAST OHIO

CITY           SKY/WX    TMP DP  RH WIND       PRES   REMARKS
CLE-HOPKINS    PTCLDY    39  28  64 W5        30.06R
CLE-LAKEFRONT  CLOUDY    38  31  76 NW3       30.04R
CUY CO. ARPT   MOCLDY    41  28  60 W9        30.04R
LORAIN-ELYRIA  CLEAR     38  25  59 CALM      30.04R
ASHTABULA      CLOUDY    31  30  96 NE5       30.06R WCI  26
AKRON-CANTON   PTCLDY    41  25  53 W6        30.02R
WOOSTER        CLEAR     37  26  64 CALM      30.03R
MANSFIELD      CLEAR     39  28  64 SW6       30.01R
YOUNGSTOWN     MOCLDY    38  27  64 CALM      30.03R
$$

OHZ042-051>053-060>062-070>072-077>081-162300-
  SOUTHWEST OHIO

CITY           SKY/WX    TMP DP  RH WIND       PRES   REMARKS
CINC-COVINGTON PTCLDY    48  27  44 SW12      30.06R
CINC-LUNKEN    CLEAR     48  28  46 S10       30.08R
HAMILTON       CLEAR     49  26  41 SW9       30.06R
DAYTON         CLEAR     45  28  51 SW16      30.02R
WRIGHT-PAT AFB CLEAR     47  23  39 S17       30.01R
DAYTON GENERAL CLEAR     47  26  44 SW12      30.03R
WILMINGTON     CLEAR     44  28  53 SW12      30.04R
$$

OHZ036-037-039>041-045>050-054>059-063>069-073>076-082>088-162300-
  CENTRAL AND SOUTHEAST OHIO

CITY           SKY/WX    TMP DP  RH WIND       PRES   REMARKS
COLUMBUS       CLEAR     46  28  49 S8        30.03R
OSU AIRPORT    CLEAR     45  28  51 S7        30.02R
BOLTON FIELD   CLEAR     45  28  53 SW12G17   30.03R
RICKENBACK AFB CLEAR     44  28  52 SW9       30.04R
NEWARK         CLEAR     44  27  51 SW7       30.03R
MARION           N/A     39  27  62 SW7       30.01
LANCASTER      CLEAR     45  27  49 SW9       30.05R
ZANESVILLE     CLEAR     46  25  43 S8        30.05R
NEW PHILLY     NOT AVBL
$$




USA.gov is the U.S. government's official web portal to all federal, state and local government web resources and services.